User: anonymous   Login
Location: Unspecified
(0.0000°N, 0.0000°E)
Time: 06:52:16
(UTC+00:00)
Language:

STARLINK-1522 - Orbit

View from above orbital plane
View from above orbital plane
View from above satellite
View from above satellite

Ground track
Ground track

The orbit is defined by the following mean orbital elements,

1 46027U          26145.28410122 +.00000000 +00000-0 +12697-2 0 00007
2 46027  53.0622 140.3283 0003140  10.9459 349.1600 15.12390763    06
Epoch (UTC): 25 May 2026 06:49:06
Eccentricity: 0.0003140
inclination: 53.0622°
perigee height: 527 km
apogee height: 531 km
right ascension of ascending node: 140.3283°
argument of perigee: 10.9459°
revolutions per day: 15.12390763
mean anomaly at epoch: 349.1600°

The dashed part of the orbit path shows where the satellite is in the earth's shadow,  

DLR